{"data":{"norad_id":48685,"intl_designator":"2021-044AZ","name":"STARLINK-2751","alt_names":[],"object_type":"PAYLOAD","status":"ACTIVE","operator":null,"country":"US","launch_date":"2021-05-26","launch_site_code":"AFETR","launch_vehicle":null,"mission":null,"orbit_class":"UNKNOWN","rcs_meters":null,"size_class":null,"mass_kg":null,"dimensions":null,"purposes":["comms"],"wikipedia_slug":null,"has_3d_model":false,"image_url":null,"decayed_at":null,"tle_current":{"epoch":"2026-05-25T04:43:29.725248Z","epoch_age_seconds":51249,"freshness":"FRESH","line1":"1 48685U 21044AZ  26145.19687182  .00001762  00000+0  68513-4 0  9994","line2":"2 48685  53.1615  69.0761 0001246  87.8553 272.2591 15.31713817276237","mean_motion":15.31713817,"eccentricity":0.0001246,"inclination_deg":53.1615,"raan_deg":69.0761,"arg_perigee_deg":87.8553,"mean_anomaly_deg":272.2591,"bstar":6.8513e-5,"rev_number":27623,"period_min":94.012339904354,"perigee_km":469.84544283559,"apogee_km":471.55217271889,"semimajor_km":6848.8358077772,"source":"CELESTRAK","updated_at":"2026-05-25T13:38:16.761557Z"}}}